Theta_e
293 294 294 294 294 295 296 296 298 296 296 296 296 295 295 295 295 295 296 298 302 304 305 305 305 306 308 312 326 325 327 329 329 326 324 324 323 323 324 323 324 324 320 315
293 293 294 295 296 296 296 296 295 295 295 295 294 294 293 293 294 294 295 296 298 300 303 304 305 306 306 312 323 327 327 328 328 325 323 322 321 321 323 321 321 319 317 315
295 293 294 295 297 297 298 298 297 297 295 295 294 294 293 294 293 294 295 295 297 297 299 301 303 304 305 311 324 326 326 326 326 325 323 322 320 319 318 317 317 318 317 316
292 294 296 295 296 297 299 297 298 298 299 297 294 295 294 294 293 295 296 295 295 296 299 300 301 303 304 307 320 325 326 325 325 323 322 321 319 316 317 316 317 317 316 313
293 294 295 295 296 297 297 297 296 297 298 296 295 295 293 293 293 293 294 295 295 296 298 300 299 301 305 306 315 322 324 324 324 323 322 322 321 320 318 315 314 313 313 313
294 294 294 293 295 294 295 297 295 295 292 294 295 294 293 292 293 292 294 294 295 295 296 298 300 302 309 311 313 318 320 322 323 322 322 321 321 319 316 315 313 312 311 311
292 292 293 295 289 291 293 295 292 288 287 291 293 295 295 295 295 297 296 296 295 297 298 298 300 300 302 306 312 315 316 318 321 321 320 320 320 318 317 315 314 312 310 308
288 291 291 292 291 294 292 296 298 296 296 295 295 297 298 292 291 294 295 295 294 294 293 293 292 293 293 293 296 305 311 315 317 319 319 318 318 318 317 315 314 312 311 310
292 290 291 291 292 294 294 291 294 296 290 295 295 296 293 291 290 290 292 294 294 292 292 291 290 290 290 290 290 291 295 299 307 312 316 317 317 317 316 316 314 313 311 311
291 292 291 293 290 294 295 296 291 288 293 291 294 294 292 290 289 289 289 291 291 291 291 291 291 290 290 289 289 290 291 291 293 299 305 310 316 316 315 315 315 313 312 311
290 289 289 287 283 287 293 291 292 293 293 291 297 292 291 289 289 288 288 290 289 289 289 290 290 289 288 288 288 289 290 290 291 293 296 303 310 314 314 314 315 314 313 311
288 292 282 286 289 289 294 294 294 292 289 290 293 292 290 288 288 288 287 287 287 287 287 288 289 288 288 288 287 288 289 289 291 292 293 296 302 309 313 313 314 314 313 312
291 293 293 286 288 291 290 293 294 291 292 289 294 289 289 287 286 286 286 285 285 285 286 286 287 287 287 287 287 287 287 288 290 291 294 295 300 305 310 312 313 313 312 312
294 284 291 292 291 289 292 292 293 290 289 289 289 288 287 287 286 285 285 284 283 283 283 284 285 286 286 286 286 287 287 287 288 290 291 293 295 298 301 304 308 310 310 310
292 292 284 289 289 290 291 292 291 287 288 290 290 287 286 287 285 284 284 283 282 282 282 282 283 284 284 284 285 286 286 286 286 287 288 289 291 294 297 299 300 302 303 305
289 290 285 290 289 289 295 292 291 289 287 287 288 288 286 287 284 283 283 282 281 281 282 282 282 283 283 283 284 285 285 285 285 285 285 286 288 290 292 294 296 297 298 298
290 290 287 285 286 290 293 289 290 287 285 285 286 287 286 286 283 282 282 282 281 281 281 281 281 282 282 283 284 283 283 283 283 283 283 284 285 286 288 289 291 293 294 295
284 291 291 286 286 292 292 290 290 289 287 286 286 285 285 285 282 282 281 281 281 280 280 280 280 280 280 281 282 281 280 280 280 280 281 283 284 285 285 287 288 289 290 291
291 292 291 289 280 290 294 288 288 289 288 284 284 283 281 283 283 282 281 280 279 280 280 279 279 279 278 279 280 279 279 279 279 279 279 281 282 283 284 284 285 286 288 289
288 289 292 285 289 289 288 285 286 286 287 279 279 277 277 284 279 278 276 273 274 275 278 277 278 277 277 278 279 278 277 277 278 278 279 280 280 281 282 283 284 285 286 286
276 274 288 288 291 287 288 287 288 288 286 276 279 278 280 281 279 276 272 272 273 275 276 276 277 276 276 277 277 277 276 276 277 278 278 279 280 280 281 282 283 283 284 285
283 282 281 283 282 289 286 288 287 282 275 280 284 277 278 274 274 274 273 274 273 272 275 275 274 275 274 275 275 275 274 275 277 277 278 278 278 279 280 280 281 282 283 283
286 287 287 288 285 283 281 284 277 275 279 279 283 279 280 279 278 278 277 277 276 276 275 274 274 273 273 273 273 273 273 274 276 277 277 277 278 278 279 279 280 280 281 282
287 285 287 286 285 284 282 280 280 279 282 283 282 281 280 279 278 277 277 276 275 275 274 273 272 272 272 272 272 271 272 273 274 276 277 277 277 277 278 278 279 279 280 280
288 289 288 288 289 284 284 285 283 282 281 282 281 279 278 278 277 277 276 276 275 274 274 273 271 271 271 271 271 272 271 271 273 274 276 277 277 277 277 277 277 278 279 279
288 288 288 288 288 289 288 286 284 283 282 281 280 278 277 277 276 276 275 275 273 272 272 271 271 270 270 270 271 271 271 270 271 272 273 274 276 276 277 277 277 278 278 279
Wind_Speed
4 7 12 18 14 19 19 23 23 21 22 20 23 19 19 20 19 21 18 19 21 23 18 19 20 29 25 27 32 33 33 32 35 28 29 31 30 34 40 41 44 43 40 37
6 11 18 10 14 17 18 19 24 23 21 17 20 21 16 19 18 18 17 19 15 14 22 19 24 23 26 28 33 36 39 37 36 34 29 23 28 32 40 40 42 42 41 39
7 18 19 18 14 20 17 15 21 22 23 19 17 19 18 20 17 18 20 17 15 16 14 13 17 22 27 28 32 33 35 39 38 37 32 24 27 24 24 29 36 43 44 43
9 7 9 17 18 17 17 10 14 20 13 12 5 14 19 15 20 16 17 16 13 14 13 13 10 15 26 31 31 35 33 36 37 37 34 33 30 20 21 35 39 43 43 43
12 20 20 19 13 15 17 13 20 22 14 8 12 7 20 8 18 18 16 15 15 15 13 15 13 8 23 28 32 35 36 35 33 38 35 33 29 28 24 31 31 34 41 43
14 9 13 9 8 15 20 16 17 12 2 5 23 8 18 5 14 16 15 11 11 16 16 14 15 15 17 20 22 31 35 36 36 38 39 36 32 26 24 30 29 32 36 41
20 3 10 5 13 11 7 10 4 4 2 7 5 8 16 16 16 14 9 11 6 7 9 13 13 5 3 11 19 23 24 27 34 35 35 36 34 32 30 32 32 30 30 32
5 22 8 11 14 7 10 3 5 6 7 17 10 5 4 10 14 15 14 12 14 14 15 15 15 10 11 16 15 11 8 9 22 34 34 33 33 31 29 29 31 34 36 36
7 12 19 13 4 3 7 3 5 6 6 9 3 3 9 20 18 17 16 15 14 12 15 15 14 10 14 17 18 14 12 9 7 8 15 23 25 26 28 29 31 32 33 35
4 16 6 6 7 2 6 4 5 3 5 6 4 4 6 18 18 16 14 13 11 10 15 12 11 11 15 17 17 17 14 11 6 3 4 7 27 30 30 27 31 32 35 35
9 5 10 6 2 8 5 3 2 4 3 3 6 2 4 9 10 12 12 11 11 10 9 9 8 9 11 18 17 17 19 16 12 9 8 8 9 29 33 35 30 33 34 36
5 4 4 11 19 7 4 5 2 3 5 3 3 2 8 11 11 12 13 14 11 9 10 9 8 6 9 18 17 18 19 16 13 12 11 11 10 15 32 34 36 32 34 37
6 3 7 9 6 3 3 7 7 10 5 3 3 3 8 9 11 12 13 12 12 13 14 12 7 5 14 17 16 17 19 16 12 10 7 6 6 6 22 28 31 32 29 33
6 2 6 10 16 11 13 14 6 4 2 4 2 5 11 12 14 13 13 14 13 14 13 10 10 13 13 14 15 19 19 17 13 10 9 7 5 4 2 7 17 24 26 30
2 5 4 15 17 15 16 6 4 3 5 2 4 1 8 8 12 12 10 11 11 11 13 12 12 12 8 12 19 20 19 19 16 14 13 12 9 5 2 2 4 10 17 25
6 8 3 17 10 7 2 1 3 2 4 2 7 2 7 5 7 10 13 13 13 12 12 12 12 11 11 17 17 16 16 18 18 17 18 14 11 8 5 1 3 6 8 12
5 3 0 6 4 8 2 2 3 2 2 2 3 4 7 4 7 9 10 10 10 10 10 11 11 10 13 16 15 16 17 18 20 18 20 19 16 12 9 5 1 3 7 10
3 3 1 4 6 3 2 2 2 3 3 2 3 5 8 5 5 10 8 9 9 9 9 9 8 12 16 17 17 17 19 19 21 20 21 20 17 15 12 8 5 2 4 7
10 3 3 1 2 4 3 3 2 3 4 2 2 6 5 9 4 4 10 8 8 9 8 9 13 14 16 20 16 16 17 17 19 20 21 19 17 15 13 12 9 4 2 5
2 3 3 3 2 3 5 3 4 3 2 4 2 3 5 5 3 3 7 5 7 9 12 13 17 16 17 20 15 15 15 16 17 19 17 16 15 14 13 10 9 6 2 1
3 3 5 6 4 6 4 4 3 2 4 4 3 3 0 2 3 4 4 4 3 6 12 16 16 17 20 20 17 16 16 18 18 16 14 15 13 13 12 9 8 6 4 3
5 2 3 2 2 5 3 1 4 4 1 5 4 4 2 3 3 1 1 2 3 4 12 19 17 17 20 19 18 14 15 18 17 16 15 14 14 12 11 9 8 7 5 5
2 6 3 6 5 4 4 5 3 4 4 4 4 4 4 4 2 3 3 5 6 8 11 14 14 15 18 18 19 16 19 18 16 15 14 13 12 12 10 9 8 8 6 5
3 4 3 3 4 4 5 3 5 5 5 4 4 4 3 4 4 4 4 4 4 7 9 13 15 14 15 19 17 15 17 17 15 13 13 11 11 10 9 7 6 5 6 5
4 5 3 5 9 2 5 7 10 7 4 5 5 4 5 5 4 3 2 3 3 4 8 10 12 12 17 20 17 15 17 16 14 12 10 11 11 8 7 7 6 4 2 4
5 6 4 5 7 5 2 7 11 11 10 8 8 6 4 4 4 2 2 1 3 7 10 14 16 16 19 20 18 17 16 14 13 13 11 10 10 8 6 4 4 3 3 1
Wind_Direction
309 293 269 274 256 254 268 272 275 270 274 268 271 272 269 266 272 280 296 266 249 250 263 271 263 245 253 226 204 210 203 200 188 181 173 176 174 176 182 188 193 194 195 193
321 263 268 278 301 282 278 275 277 279 272 266 265 273 278 281 275 269 269 271 283 287 251 249 267 263 237 226 204 195 199 191 190 188 182 176 180 183 185 189 193 192 195 194
248 268 291 291 284 293 281 268 267 264 282 274 269 276 272 264 261 260 260 252 252 262 266 263 245 247 245 215 198 192 189 186 190 193 184 183 180 180 180 185 190 195 197 198
280 268 286 293 291 292 289 311 308 304 271 271 159 281 258 252 262 255 264 247 234 243 248 255 251 249 230 216 199 193 190 189 189 185 181 178 177 180 193 188 194 197 200 198
264 298 295 300 280 287 288 289 297 291 272 284 257 257 275 260 262 256 251 246 231 232 235 243 238 229 239 207 195 191 189 190 190 188 190 187 192 196 187 190 192 192 197 202
267 276 281 245 291 315 290 298 283 277 126 250 259 193 284 267 265 271 264 248 240 228 239 243 247 206 211 199 191 185 188 190 189 192 193 195 197 187 177 183 188 190 193 200
319 243 291 298 344 322 359 309 308 350 340 239 332 229 250 359 1 345 318 303 275 14 341 246 246 198 244 180 190 192 192 194 189 192 195 198 196 188 188 187 190 188 190 194
322 321 0 315 305 277 308 263 332 309 289 295 291 238 84 30 8 6 17 33 25 29 34 26 20 40 46 39 52 96 126 155 187 193 199 201 199 197 195 193 192 195 197 200
326 289 310 293 263 179 326 1 262 272 255 263 249 44 231 9 11 10 2 18 27 17 39 23 16 26 45 38 33 42 66 72 102 175 209 204 201 202 201 201 199 200 203 204
253 297 299 282 354 310 333 324 332 336 310 311 306 72 350 354 356 354 353 5 15 17 42 22 21 17 36 45 38 35 43 34 7 325 235 227 211 212 211 208 204 203 206 208
273 216 281 358 284 276 331 336 292 265 241 255 333 59 356 351 344 350 348 2 17 18 35 24 17 21 38 47 36 36 36 20 1 327 296 266 232 219 219 218 215 212 208 210
232 255 279 263 289 236 189 356 330 290 296 276 243 85 355 357 356 358 4 6 16 17 22 18 13 1 56 48 31 35 30 21 358 339 310 283 271 229 220 220 222 220 212 212
294 249 312 329 354 350 26 334 320 297 240 251 306 320 348 14 10 6 6 7 8 18 28 21 354 12 44 38 32 36 31 20 9 355 333 312 287 261 221 222 224 225 221 213
336 261 215 278 279 284 296 311 313 309 347 326 301 313 341 358 12 8 9 4 7 18 14 9 2 28 33 22 30 35 28 26 19 22 32 35 18 13 345 224 223 224 222 214
245 266 219 266 264 275 278 267 284 26 302 37 304 284 350 360 6 358 5 12 13 17 20 14 14 25 17 18 31 29 28 28 32 36 37 31 24 17 5 292 247 230 220 216
306 269 299 295 295 236 226 256 352 337 321 314 333 314 5 353 11 10 4 7 13 13 13 11 12 10 9 18 19 21 24 29 37 35 33 33 34 34 30 355 251 237 233 226
243 244 311 266 296 302 123 272 268 173 272 270 358 305 323 349 23 19 10 7 10 7 2 6 7 5 9 11 18 25 25 36 36 33 34 35 36 35 31 20 339 239 229 226
246 300 221 275 338 4 223 203 228 156 199 291 279 312 318 310 160 51 23 8 8 2 4 4 8 8 9 15 33 37 40 34 33 29 30 36 37 37 35 36 31 325 250 233
209 237 276 266 225 272 164 264 168 172 219 232 277 318 316 320 172 36 11 11 4 360 6 8 13 11 13 18 27 39 40 33 30 24 27 30 34 40 41 39 30 18 287 245
133 190 203 348 251 259 231 250 188 136 276 204 160 294 329 359 65 279 316 337 346 2 6 8 18 22 26 21 28 37 33 30 24 19 22 26 31 36 37 36 38 36 46 179
330 338 218 243 276 289 235 230 158 68 247 195 190 185 23 116 193 239 332 346 6 20 23 33 36 33 25 23 27 30 23 18 14 20 25 28 31 35 33 32 43 48 71 107
176 149 238 65 36 291 169 169 177 204 212 166 173 182 172 222 295 284 3 18 17 11 18 28 32 33 32 29 29 27 20 10 13 13 18 24 27 31 35 39 46 56 74 98
289 187 190 175 223 228 213 208 215 165 153 199 168 181 186 148 123 89 54 32 25 25 18 21 24 24 29 30 25 17 5 5 9 12 16 19 22 26 28 38 46 58 74 92
258 170 203 54 270 227 208 204 170 180 183 162 156 156 140 135 120 97 81 46 24 17 11 9 14 11 5 6 8 10 1 359 359 7 8 14 17 16 25 33 48 72 75 88
201 156 194 257 277 285 228 201 177 180 179 152 149 159 161 144 135 118 93 52 16 356 359 3 1 349 346 350 348 353 351 351 356 356 4 4 2 6 9 16 18 19 60 68
193 218 190 222 223 214 238 192 163 171 185 179 163 158 164 147 139 111 91 36 350 339 347 353 347 343 340 339 343 349 343 336 342 343 343 346 348 343 341 354 351 8 2 354